Morgantown, WV

12:03 PM EDT on October 17, 2017 (GMT -0400)
Morgantown Municipal-Hart

Weather History for KMGW - March, 2014

Change the Weather History Date:

Sunday, March 2, 2014

  Actual Average Record
Temperature  
Mean Temperature 30 °F 38 °F  
Max Temperature 43 °F 47 °F 74 °F (1991)
Min Temperature 17 °F 28 °F 5 °F (1980)
Degree Days  
Heating Degree Days 35 27  
Month to date heating degree days 67 55  
Since 1 July heating degree days 4193 3944  
Cooling Degree Days 0 0  
Month to date cooling degree days 0 0  
Year to date cooling degree days 0 0  
Moisture  
Dew Point 24 °F    
Average Humidity 79    
Maximum Humidity 100    
Minimum Humidity 57    
Precipitation  
Precipitation 0.42 in 0.11 in 0.75 in (1972)
Month to date precipitation 0.42 0.21  
Year to date precipitation 5.59 5.62  
Sea Level Pressure  
Sea Level Pressure 30.10 in    
Wind  
Wind Speed 7 mph (North)    
Max Wind Speed 13 mph    
Max Gust Speed 16 mph    
Visibility 3 miles    
Events Fog , Rain , Snow    
T = Trace of Precipitation, MM = Missing Value Source: NWS Daily Summary

Daily Weather History Graph

Daily Weather History Graph

Search for Another Location

Airport or City:

Trip Planner

Search our weather history database for the weather conditions in past years. The results will help you decide how hot, cold, wet, or windy it might be!

Date:

Astronomy

Mar. 02, 2014 Rise Set
Actual Time 6:51 AM EST 6:12 PM EST
Civil Twilight 6:24 AM EST 6:39 PM EST
Nautical Twilight 5:53 AM EST 7:11 PM EST
Astronomical Twilight 5:21 AM EST 7:42 PM EST
Moon 7:21 AM EST (3/2) 8:06 PM EST (3/2)
Length of Visible Light 12h 15m
Length of Day
11h 21m
Waxing Crescent, 3% of the Moon is Illuminated
Mar 2
Waxing Crescent
Mar 8
First Quarter
Mar 16
Full
Mar 23
Last Quarter
Mar 30
New

Hourly Weather History & Observations

Time (EST) Temp. Windchill Dew Point Humidity Pressure Visibility Wind Dir Wind Speed Gust Speed Precip Events Conditions
12:53 AM 41.0 °F - 28.9 °F 62% 30.10 in 10.0 mi Calm Calm - N/A   Overcast
1:53 AM 42.1 °F - 28.9 °F 60% 30.09 in 10.0 mi Calm Calm - N/A   Overcast
2:53 AM 39.0 °F 36.8 °F 30.0 °F 70% 30.09 in 10.0 mi SSW 3.5 mph - N/A   Overcast
3:53 AM 39.9 °F 36.7 °F 28.9 °F 65% 30.07 in 10.0 mi SW 4.6 mph - N/A   Overcast
4:53 AM 43.0 °F - 28.9 °F 58% 30.06 in 10.0 mi Calm Calm - N/A   Overcast
5:53 AM 36.0 °F 28.5 °F 28.0 °F 73% 30.12 in 10.0 mi North 10.4 mph - N/A   Overcast
6:53 AM 33.1 °F 27.7 °F 24.1 °F 70% 30.14 in 10.0 mi NNW 5.8 mph - N/A   Overcast
7:53 AM 32.0 °F 26.4 °F 24.1 °F 73% 30.12 in 9.0 mi North 5.8 mph - 0.00 in Snow Light Snow
8:53 AM 30.9 °F 22.8 °F 26.1 °F 82% 30.15 in 4.0 mi North 9.2 mph - 0.00 in Snow Light Freezing Rain
9:04 AM 30.9 °F 23.5 °F 27.0 °F 85% 30.11 in 2.0 mi North 8.1 mph - 0.00 in Snow Light Freezing Rain
9:16 AM 30.9 °F 27.5 °F 28.0 °F 89% 30.12 in 2.5 mi NNW 3.5 mph - 0.01 in Rain Light Freezing Rain
9:38 AM 30.0 °F 25.2 °F 28.0 °F 92% 30.11 in 1.5 mi North 4.6 mph - 0.02 in Rain Light Freezing Rain
9:46 AM 30.9 °F 24.3 °F 28.0 °F 89% 30.10 in 1.8 mi NNE 6.9 mph - 0.02 in Rain , Snow Light Freezing Rain
9:53 AM 30.9 °F 26.2 °F 28.0 °F 89% 30.13 in 1.8 mi NNE 4.6 mph - 0.02 in Rain , Snow Light Freezing Rain
10:01 AM 30.0 °F 26.5 °F 28.0 °F 92% 30.10 in 2.0 mi NNE 3.5 mph - 0.01 in Rain , Snow Light Freezing Rain
10:30 AM 30.0 °F 26.5 °F 28.0 °F 92% 30.07 in 1.8 mi Variable 3.5 mph - 0.01 in Rain Light Freezing Rain
10:36 AM 30.9 °F 26.2 °F 28.0 °F 89% 30.07 in 2.0 mi NNE 4.6 mph - 0.01 in Rain Light Freezing Rain
10:53 AM 30.9 °F 24.3 °F 28.0 °F 89% 30.11 in 2.0 mi North 6.9 mph - 0.01 in Rain Light Freezing Rain
11:02 AM 30.9 °F 26.2 °F 28.0 °F 89% 30.07 in 1.5 mi North 4.6 mph - 0.01 in Rain , Snow Light Freezing Rain
11:25 AM 30.9 °F 22.2 °F 28.9 °F 92% 30.09 in 2.0 mi North 10.4 mph - 0.01 in Rain Light Freezing Rain
11:35 AM 30.0 °F 22.4 °F 28.0 °F 92% 30.09 in 1.8 mi North 8.1 mph - 0.02 in Rain , Snow Light Freezing Rain
11:53 AM 30.0 °F 21.7 °F 28.0 °F 92% 30.12 in 1.0 mi North 9.2 mph - 0.04 in Rain , Snow Light Freezing Rain
12:00 PM 30.0 °F 23.2 °F 28.0 °F 92% 30.09 in 0.5 mi North 6.9 mph - 0.01 in Rain , Snow Light Freezing Rain
12:04 PM 30.0 °F 24.1 °F 28.0 °F 92% 30.08 in 0.5 mi North 5.8 mph - 0.01 in Snow Light Snow
12:13 PM 30.0 °F 25.2 °F 28.9 °F 96% 30.09 in 0.8 mi North 4.6 mph - 0.02 in Snow Light Snow
12:53 PM 28.9 °F 22.8 °F 27.0 °F 92% 30.11 in 0.5 mi North 5.8 mph - 0.09 in Snow Light Snow
1:00 PM 28.9 °F 22.8 °F 27.0 °F 92% 30.07 in 0.5 mi North 5.8 mph - 0.01 in Snow Light Snow
1:08 PM 28.9 °F 20.4 °F 27.0 °F 92% 30.07 in 0.5 mi North 9.2 mph - 0.02 in Snow Light Snow
1:23 PM 28.0 °F 20.8 °F 27.0 °F 96% 30.06 in 0.2 mi North 6.9 mph - 0.05 in Snow Snow
1:49 PM 26.6 °F 19.1 °F 26.6 °F 100% 30.06 in 0.5 mi North 6.9 mph - 0.09 in Fog , Snow Light Snow
1:53 PM 27.0 °F 18.0 °F 26.1 °F 96% 30.09 in 0.5 mi North 9.2 mph - 0.10 in Fog , Snow Snow
2:03 PM 27.0 °F 23.0 °F 26.1 °F 96% 30.06 in 0.2 mi NNW 3.5 mph - 0.02 in Fog , Snow Snow
2:29 PM 27.0 °F 20.5 °F 25.0 °F 92% 30.06 in 0.5 mi NNW 5.8 mph - 0.05 in Fog , Snow Light Snow
2:48 PM 26.6 °F 21.2 °F 24.8 °F 93% 30.06 in 0.5 mi North 4.6 mph - 0.08 in Fog , Snow Light Snow
2:53 PM 27.0 °F 23.0 °F 25.0 °F 92% 30.10 in 0.5 mi NNW 3.5 mph - 0.08 in Fog , Snow Light Snow
3:23 PM 27.0 °F 20.5 °F 24.1 °F 89% 30.07 in 0.8 mi NNW 5.8 mph - 0.03 in Snow Light Snow
3:30 PM 27.0 °F 19.5 °F 24.1 °F 89% 30.07 in 1.5 mi North 6.9 mph - 0.03 in Snow Light Snow
3:53 PM 26.1 °F 17.6 °F 24.1 °F 92% 30.11 in 2.0 mi North 8.1 mph - 0.03 in Snow Light Snow
4:04 PM 26.1 °F 17.6 °F 23.0 °F 88% 30.07 in 5.0 mi North 8.1 mph - 0.00 in   Overcast
4:32 PM 26.1 °F 16.8 °F 21.9 °F 84% 30.07 in 4.0 mi North 9.2 mph - 0.00 in   Overcast
4:39 PM 26.1 °F 17.6 °F 21.9 °F 84% 30.07 in 2.5 mi North 8.1 mph - 0.00 in Snow Light Snow
4:53 PM 26.1 °F 16.2 °F 21.9 °F 84% 30.11 in 2.5 mi North 10.4 mph - 0.00 in Snow Light Snow
4:55 PM 25.0 °F 14.8 °F 21.9 °F 88% 30.07 in 4.0 mi North 10.4 mph - 0.00 in Snow Light Snow
5:53 PM 25.0 °F 17.1 °F 21.0 °F 85% 30.12 in 4.0 mi NNW 6.9 mph - 0.00 in   Overcast
6:53 PM 24.1 °F 16.0 °F 19.9 °F 84% 30.13 in 9.0 mi NNW 6.9 mph - 0.01 in   Overcast
7:53 PM 21.9 °F 11.7 °F 18.0 °F 85% 30.14 in 4.0 mi North 9.2 mph - 0.00 in Snow Light Snow
8:31 PM 21.0 °F 9.9 °F 16.0 °F 81% 30.09 in 5.0 mi North 10.4 mph - 0.00 in   Haze
8:53 PM 21.0 °F 11.4 °F 16.0 °F 81% 30.15 in 5.0 mi North 8.1 mph - 0.00 in   Haze
9:22 PM 21.0 °F 13.4 °F 17.1 °F 85% 30.11 in 4.0 mi NNW 5.8 mph - N/A   Overcast
9:27 PM 21.0 °F 16.2 °F 17.1 °F 85% 30.11 in 2.5 mi NNW 3.5 mph - 0.00 in Snow Light Snow
9:53 PM 19.9 °F 8.6 °F 16.0 °F 85% 30.15 in 2.5 mi North 10.4 mph - 0.01 in Snow Light Snow
10:39 PM 19.9 °F 11.1 °F 16.0 °F 85% 30.10 in 2.5 mi Variable 6.9 mph - 0.00 in Snow Light Snow
10:53 PM 19.0 °F 9.0 °F 15.1 °F 85% 30.16 in 3.0 mi North 8.1 mph - 0.00 in   Overcast
11:02 PM 19.0 °F 10.0 °F 15.1 °F 85% 30.10 in 2.0 mi NNW 6.9 mph - 0.01 in Snow Light Snow
11:12 PM 18.0 °F 9.8 °F 15.1 °F 88% 30.10 in 1.8 mi NNW 5.8 mph - 0.01 in Snow Light Snow
11:25 PM 18.0 °F 6.9 °F 15.1 °F 88% 30.10 in 1.8 mi North 9.2 mph - 0.02 in Snow Light Snow
11:51 PM 17.6 °F 9.3 °F 15.8 °F 93% 30.10 in 1.2 mi North 5.8 mph - 0.03 in Snow Light Snow
11:53 PM 17.1 °F 6.6 °F 15.1 °F 92% 30.16 in 1.2 mi North 8.1 mph - 0.03 in Snow Light Snow